Time,TemperatureF,DewpointF,PressureIn,WindDirection,WindDirectionDegrees,WindSpeedMPH,WindSpeedGustMPH,Humidity,HourlyPrecipIn,Conditions,Clouds,dailyrainin,SoftwareType,DateUTC
2013-08-08 00:01:00,65.0,56.0,29.96,SW,222,2.0,4.0,72,0.00,,,0.00,,2013-08-08 07:01:00,
2013-08-08 00:43:00,63.0,55.0,29.96,North,0,0.0,0.0,76,0.00,,,0.00,,2013-08-08 07:43:00,
2013-08-08 00:53:00,63.0,55.0,29.96,North,0,0.0,0.0,76,0.00,,,0.00,,2013-08-08 07:53:00,
2013-08-08 01:01:00,62.0,55.0,29.96,North,0,0.0,1.0,79,0.00,,,0.00,,2013-08-08 08:01:00,
2013-08-08 01:11:00,62.0,55.0,29.96,North,0,0.0,1.0,79,0.00,,,0.00,,2013-08-08 08:11:00,
2013-08-08 01:32:00,61.0,55.0,29.97,SW,230,1.0,3.0,82,0.00,,,0.00,,2013-08-08 08:32:00,
2013-08-08 01:52:00,60.0,55.0,29.98,South,186,3.0,7.0,84,0.00,,,0.00,,2013-08-08 08:52:00,
2013-08-08 02:01:00,60.0,55.0,29.98,SSW,208,4.0,7.0,85,0.00,,,0.00,,2013-08-08 09:01:00,
2013-08-08 02:53:00,59.0,55.0,29.98,South,182,4.0,6.0,87,0.00,,,0.00,,2013-08-08 09:53:00,
2013-08-08 03:01:00,58.0,54.0,29.98,SSW,195,3.0,6.0,88,0.00,,,0.00,,2013-08-08 10:01:00,
2013-08-08 03:11:00,58.0,55.0,29.98,SSW,209,3.0,6.0,89,0.00,,,0.00,,2013-08-08 10:11:00,
2013-08-08 03:22:00,58.0,55.0,29.98,SSW,209,3.0,6.0,89,0.00,,,0.00,,2013-08-08 10:22:00,
2013-08-08 03:32:00,58.0,55.0,29.98,SW,217,1.0,5.0,89,0.00,,,0.00,,2013-08-08 10:32:00,
2013-08-08 03:43:00,58.0,55.0,29.98,SSW,199,3.0,9.0,89,0.00,,,0.00,,2013-08-08 10:43:00,
2013-08-08 03:52:00,58.0,55.0,29.98,SSW,199,3.0,9.0,89,0.00,,,0.00,,2013-08-08 10:52:00,
2013-08-08 04:52:00,57.0,55.0,29.98,SSW,203,2.0,7.0,92,0.00,,,0.00,,2013-08-08 11:52:00,
2013-08-08 05:01:00,57.0,55.0,29.98,SW,218,5.0,10.0,92,0.00,,,0.00,,2013-08-08 12:01:00,
2013-08-08 05:11:00,57.0,55.0,29.98,SW,218,5.0,10.0,92,0.00,,,0.00,,2013-08-08 12:11:00,
2013-08-08 05:32:00,57.0,55.0,29.98,South,186,2.0,11.0,93,0.00,,,0.00,,2013-08-08 12:32:00,
2013-08-08 05:52:00,57.0,55.0,29.98,SSW,196,2.0,7.0,94,0.00,,,0.00,,2013-08-08 12:52:00,
2013-08-08 06:01:00,57.0,55.0,29.98,SSW,196,2.0,7.0,94,0.00,,,0.00,,2013-08-08 13:01:00,
2013-08-08 07:02:00,57.0,56.0,30.00,SSW,213,3.0,6.0,95,0.00,,,0.00,,2013-08-08 14:02:00,
2013-08-08 07:11:00,57.0,56.0,30.00,SW,229,1.0,6.0,95,0.00,,,0.00,,2013-08-08 14:11:00,
2013-08-08 07:53:00,57.0,56.0,30.00,SSW,194,1.0,5.0,95,0.00,,,0.00,,2013-08-08 14:53:00,
2013-08-08 08:01:00,57.0,56.0,30.00,North,0,0.0,5.0,95,0.00,,,0.00,,2013-08-08 15:01:00,
2013-08-08 08:11:00,57.0,56.0,30.00,South,187,3.0,5.0,95,0.00,,,0.00,,2013-08-08 15:11:00,
2013-08-08 08:43:00,57.0,56.0,30.00,South,190,3.0,7.0,95,0.00,,,0.00,,2013-08-08 15:43:00,
2013-08-08 08:52:00,57.0,56.0,30.00,North,0,0.0,4.0,95,0.00,,,0.00,,2013-08-08 15:52:00,
2013-08-08 09:01:00,57.0,56.0,30.00,North,0,0.0,4.0,95,0.00,,,0.00,,2013-08-08 16:01:00,
2013-08-08 09:11:00,57.0,56.0,30.00,North,0,0.0,4.0,95,0.00,,,0.00,,2013-08-08 16:11:00,
2013-08-08 10:21:00,58.0,56.0,30.00,WSW,242,2.0,4.0,92,0.00,,,0.00,,2013-08-08 17:21:00,
2013-08-08 10:32:00,58.0,56.0,30.00,SW,220,5.0,10.0,92,0.00,,,0.00,,2013-08-08 17:32:00,
2013-08-08 10:52:00,58.0,55.0,30.00,SW,227,4.0,9.0,91,0.00,,,0.00,,2013-08-08 17:52:00,
2013-08-08 11:01:00,59.0,56.0,30.00,SSW,197,3.0,9.0,90,0.00,,,0.00,,2013-08-08 18:01:00,
2013-08-08 11:32:00,60.0,57.0,30.00,North,0,0.0,6.0,89,0.00,,,0.00,,2013-08-08 18:32:00,
2013-08-08 11:42:00,60.0,57.0,30.00,North,0,0.0,6.0,89,0.00,,,0.00,,2013-08-08 18:42:00,
2013-08-08 11:52:00,60.0,57.0,30.00,North,0,0.0,6.0,89,0.00,,,0.00,,2013-08-08 18:52:00,
2013-08-08 12:01:00,66.0,58.0,29.99,SW,218,1.0,6.0,76,0.00,,,0.00,,2013-08-08 19:01:00,
2013-08-08 12:32:00,69.0,58.0,29.98,West,261,2.0,4.0,69,0.00,,,0.00,,2013-08-08 19:32:00,
2013-08-08 12:43:00,70.0,59.0,29.98,WSW,243,2.0,5.0,67,0.00,,,0.00,,2013-08-08 19:43:00,
2013-08-08 12:53:00,70.0,58.0,29.98,SW,223,1.0,5.0,66,0.00,,,0.00,,2013-08-08 19:53:00,
2013-08-08 14:22:00,76.0,58.0,29.95,SW,229,1.0,5.0,53,0.00,,,0.00,,2013-08-08 21:22:00,
2013-08-08 14:32:00,76.0,57.0,29.95,South,178,3.0,6.0,51,0.00,,,0.00,,2013-08-08 21:32:00,
2013-08-08 14:42:00,75.0,57.0,29.95,SSE,167,1.0,11.0,53,0.00,,,0.00,,2013-08-08 21:42:00,
2013-08-08 14:52:00,75.0,57.0,29.95,SSE,164,1.0,9.0,53,0.00,,,0.00,,2013-08-08 21:52:00,
2013-08-08 15:44:00,78.0,58.0,29.94,North,0,0.0,2.0,50,0.00,,,0.00,,2013-08-08 22:44:00,
2013-08-08 16:43:00,76.0,57.0,29.93,NW,325,3.0,9.0,51,0.00,,,0.00,,2013-08-08 23:43:00,
2013-08-08 17:01:00,74.0,57.0,29.93,NNW,336,4.0,6.0,56,0.00,,,0.00,,2013-08-09 00:01:00,
2013-08-08 17:11:00,74.0,57.0,29.93,North,351,3.0,7.0,56,0.00,,,0.00,,2013-08-09 00:11:00,
2013-08-08 17:43:00,73.0,57.0,29.93,North,359,3.0,11.0,57,0.00,,,0.00,,2013-08-09 00:43:00,
2013-08-08 18:01:00,72.0,56.0,29.93,NE,36,2.0,7.0,58,0.00,,,0.00,,2013-08-09 01:01:00,
2013-08-08 18:11:00,72.0,55.0,29.93,NNE,26,4.0,9.0,55,0.00,,,0.00,,2013-08-09 01:11:00,
2013-08-08 18:43:00,73.0,56.0,29.92,NNE,19,1.0,7.0,55,0.00,,,0.00,,2013-08-09 01:43:00,
2013-08-08 19:02:00,73.0,55.0,29.92,North,10,3.0,7.0,54,0.00,,,0.00,,2013-08-09 02:02:00,
2013-08-08 19:44:00,72.0,55.0,29.91,North,350,1.0,3.0,56,0.00,,,0.00,,2013-08-09 02:44:00,
2013-08-08 19:53:00,72.0,55.0,29.91,NE,48,1.0,4.0,56,0.00,,,0.00,,2013-08-09 02:53:00,
2013-08-08 20:11:00,71.0,56.0,29.91,ENE,76,1.0,3.0,60,0.00,,,0.00,,2013-08-09 03:11:00,
2013-08-08 20:52:00,70.0,55.0,29.91,ENE,74,2.0,6.0,58,0.00,,,0.00,,2013-08-09 03:52:00,
2013-08-08 21:01:00,69.0,55.0,29.91,NNE,32,1.0,4.0,61,0.00,,,0.00,,2013-08-09 04:01:00,
2013-08-08 21:11:00,69.0,56.0,29.91,North,0,0.0,4.0,63,0.00,,,0.00,,2013-08-09 04:11:00,
2013-08-08 21:33:00,67.0,55.0,29.91,North,0,0.0,4.0,65,0.00,,,0.00,,2013-08-09 04:33:00,
2013-08-08 22:21:00,64.0,54.0,29.92,NNE,25,3.0,6.0,70,0.00,,,0.00,,2013-08-09 05:21:00,
2013-08-08 22:42:00,63.0,55.0,29.92,NE,54,1.0,4.0,74,0.00,,,0.00,,2013-08-09 05:42:00,
2013-08-08 23:01:00,62.0,55.0,29.92,NE,36,2.0,5.0,78,0.00,,,0.00,,2013-08-09 06:01:00,
2013-08-08 23:32:00,61.0,54.0,29.92,North,0,0.0,2.0,79,0.00,,,0.00,,2013-08-09 06:32:00,
2013-08-08 23:43:00,62.0,55.0,29.92,NNE,31,1.0,3.0,77,0.00,,,0.00,,2013-08-09 06:43:00,
2013-08-08 23:52:00,62.0,55.0,29.92,North,0,0.0,3.0,77,0.00,,,0.00,,2013-08-09 06:52:00,